Reus, Spain

9:37 AM CEST en Septiembre 21, 2018 (GMT +0200)
Reus Air Base

Tiempo Historia de LERS - Marzo, 2018

Change the Weather History Date:

Martes, Marzo 13, 2018

  Actual Average Record
Temperature  
Temperatura media 54 ° F -  
Temperatura máxima 65 ° F 63 ° F 68 ° F (1997)
Temperatura mínima 43 ° F 47 ° F 33 ° F (2016)
Degree Days  
Grados día de calefacción 11    
Growing Degree Days 4 (Base 50)    
Moisture  
Punto de rocío 42 ° F    
Average Humidity 61    
Maximum Humidity 88    
Minimum Humidity 32    
Precipitación  
Precipitación 0.00 pul - - ()
Presión al nivel del mar  
Presión al nivel del mar 29.97 pul    
Viento  
Velocidad del viento 5 mph ()    
Velocidad máxima del viento 15 mph    
Max Gust Speed -    
Visibilidad 10.5 Millas    
Eventos      
Averages and records for this station are not official NWS values.
T = Trace of Precipitation, MM = Missing Value Source: Averaged Metar Reports

Daily Weather History Graph

Daily Weather History Graph

Search for Another Location

Airport or City:

Astronomía

Mar. 13, 2018 Salida Puesta
Hora real 7:10 AM CET 6:59 PM CET
Crepúsculo civil 6:43 AM CET 7:27 PM CET
Crepúsculo náutico 6:11 AM CET 7:59 PM CET
Crepúsculo astronómico 5:39 AM CET 8:31 PM CET
Luna 4:59 AM CET (3/13) 3:04 PM CET (3/13)
Horas de luz 12h 43m
Horas de luz
11h 48m
Creciente menguante, 16% of the Moon is Illuminated
Mar 13
Creciente menguante
Mar 17
Nueva
Mar 24
Cuarto creciente
Mar 31
Luna llena
Abr 8
Cuarto menguante

Hourly Weather History & Observations

Hora (CET) Temp. Vientos helados Punto de rocío Humedad Presión Visibilidad Wind Dir Velocidad del viento Velocidad de ráfagas Precip Eventos Condiciones
12:00 AM 49 ° F - 39 ° F 59% 29.99 pul 19 mi SO 5.8 mph - -  
12:00 AM 50.0 ° F - 35.6 ° F 58% 29.98 pul 6.2 mi Sur 4.6 mph - N/A   Desconocido
12:30 AM 50.0 ° F - 35.6 ° F 58% 29.98 pul 6.2 mi SO 3.5 mph - N/A   Desconocido
1:00 AM 47 ° F - 38 ° F 63% 30.00 pul 19 mi Sin viento Sin viento - -  
1:00 AM 48.2 ° F - 39.2 ° F 71% 29.98 pul 6.2 mi Variable 1.2 mph - N/A   Desconocido
1:30 AM 48.2 ° F - 39.2 ° F 71% 29.98 pul 6.2 mi Variable 1.2 mph - N/A   Desconocido
2:00 AM 46.4 ° F - 39.2 ° F 76% 29.98 pul 6.2 mi Variable 2.3 mph - N/A   Desconocido
2:30 AM 46.4 ° F - 37.4 ° F 71% 29.98 pul 6.2 mi Variable 1.2 mph - N/A   Desconocido
3:00 AM 46 ° F - 38 ° F 66% 29.99 pul 19 mi SO 2.3 mph - -  
3:00 AM 48.2 ° F - 39.2 ° F 71% 29.98 pul - Variable 1.2 mph - N/A   Despejado
3:30 AM 48.2 ° F - 39.2 ° F 71% 29.95 pul - SSO 3.5 mph - N/A   Despejado
4:00 AM 46 ° F - 39 ° F 69% 29.96 pul 19 mi SSO 4.6 mph - -  
4:00 AM 48.2 ° F - 39.2 ° F 71% 29.95 pul - Variable 2.3 mph - N/A   Despejado
4:30 AM 51.8 ° F - 37.4 ° F 58% 29.95 pul - SO 8.1 mph - N/A   Despejado
5:00 AM 53 ° F - 37 ° F 43% 29.96 pul 19 mi ONO 8.1 mph - -  
5:00 AM 48.2 ° F - 39.2 ° F 71% 29.95 pul - NE 4.6 mph - N/A   Despejado
5:30 AM 50.0 ° F - 39.2 ° F 66% 29.95 pul - Sin viento Sin viento - N/A   Despejado
6:00 AM 50 ° F - 38 ° F 54% 29.97 pul 19 mi Oeste 5.8 mph - -  
6:00 AM 48.2 ° F - 39.2 ° F 71% 29.95 pul - Sin viento Sin viento - N/A   Despejado
6:30 AM 48.2 ° F - 39.2 ° F 71% 29.95 pul - NE 3.5 mph - N/A   Despejado
7:00 AM 48 ° F - 40 ° F 64% 29.98 pul 19 mi Este 2.3 mph - -   Nubes dispersas
7:00 AM 48.2 ° F - 39.2 ° F 71% 29.98 pul 6.2 mi Variable 1.2 mph - N/A   Parcialmente nublado
7:30 AM 51.8 ° F - 39.2 ° F 62% 29.98 pul 6.2 mi SO 3.5 mph - N/A   Parcialmente nublado
8:00 AM 53 ° F - 40 ° F 50% 29.99 pul 19 mi ONO 6.9 mph - -  
8:00 AM 53.6 ° F - 39.2 ° F 58% 29.98 pul 6.2 mi ONO 9.2 mph - N/A   Nubes dispersas
8:30 AM 53.6 ° F - 41.0 ° F 62% 29.98 pul 6.2 mi Variable 1.2 mph - N/A   Nubes dispersas
9:00 AM 54 ° F - 40 ° F 49% 30.00 pul 19 mi OSO 1.2 mph - -  
9:00 AM 55.4 ° F - 41.0 ° F 58% 29.98 pul 6.2 mi SO 3.5 mph - N/A   Nubes dispersas
9:30 AM 55.4 ° F - 41.0 ° F 58% 30.01 pul 6.2 mi Variable 2.3 mph - N/A   Nubes dispersas
10:00 AM 55 ° F - 43 ° F 53% 30.01 pul 19 mi OSO 4.6 mph - -   Nubes dispersas
10:00 AM 55.4 ° F - 42.8 ° F 63% 30.01 pul 6.2 mi SO 3.5 mph - N/A   Nubes dispersas
10:30 AM 57.2 ° F - 41.0 ° F 55% 30.01 pul 6.2 mi SSO 2.3 mph - N/A   Nubes dispersas
11:00 AM 61 ° F - 40 ° F 34% 30.00 pul 19 mi Oeste 13.8 mph - -  
11:00 AM 60.8 ° F - 41.0 ° F 48% 29.98 pul 6.2 mi Oeste 9.2 mph - N/A   Nubes dispersas
11:30 AM 59.0 ° F - 41.0 ° F 51% 29.98 pul 6.2 mi Oeste 12.7 mph - N/A   Nubes dispersas
12:00 PM 60 ° F - 41 ° F 39% 30.00 pul 19 mi Oeste 15.0 mph - -  
12:00 PM 59.0 ° F - 42.8 ° F 55% 29.98 pul 6.2 mi Oeste 11.5 mph - N/A   Nubes dispersas
12:30 PM 59.0 ° F - 41.0 ° F 51% 29.98 pul 6.2 mi Oeste 13.8 mph - N/A   Nubes dispersas
1:00 PM 62 ° F - 42 ° F 36% 29.99 pul 19 mi Oeste 15.0 mph - -   Parcialmente nublado
1:00 PM 60.8 ° F - 41.0 ° F 48% 29.98 pul 6.2 mi Oeste 15.0 mph - N/A   Nubes dispersas
1:30 PM 60.8 ° F - 41.0 ° F 48% 29.98 pul 6.2 mi Oeste 12.7 mph - N/A   Nubes dispersas
2:00 PM 65 ° F - 42 ° F 32% 29.96 pul 19 mi ONO 12.7 mph - -  
2:00 PM 62.6 ° F - 42.8 ° F 48% 29.95 pul 6.2 mi Oeste 12.7 mph - N/A   Parcialmente nublado
2:30 PM 62.6 ° F - 41.0 ° F 45% 29.95 pul 6.2 mi OSO 13.8 mph - N/A   Nubes dispersas
3:00 PM 62 ° F - 45 ° F 42% 29.96 pul 19 mi SSO 13.8 mph - -  
3:00 PM 60.8 ° F - 42.8 ° F 52% 29.95 pul 6.2 mi SSO 10.4 mph - N/A   Nubes dispersas
3:30 PM 62.6 ° F - 42.8 ° F 48% 29.95 pul 6.2 mi SSO 10.4 mph - N/A   Parcialmente nublado
4:00 PM 59.0 ° F - 42.8 ° F 55% 29.95 pul 6.2 mi SSO 10.4 mph - N/A   Nubes dispersas
4:30 PM 62.6 ° F - 42.8 ° F 48% 29.95 pul 6.2 mi SSO 8.1 mph - N/A   Parcialmente nublado
5:00 PM 64 ° F - 45 ° F 39% 29.94 pul 19 mi OSO 8.1 mph - -  
5:00 PM 62.6 ° F - 42.8 ° F 48% 29.95 pul 6.2 mi SO 9.2 mph - N/A   Parcialmente nublado
5:30 PM 60.8 ° F - 44.6 ° F 55% 29.95 pul 6.2 mi SO 5.8 mph - N/A   Parcialmente nublado
6:00 PM 62 ° F - 44 ° F 40% 29.95 pul 19 mi Oeste 8.1 mph - -  
6:00 PM 62.6 ° F - 44.6 ° F 52% 29.95 pul 6.2 mi Oeste 9.2 mph - N/A   Parcialmente nublado
6:30 PM 60.8 ° F - 42.8 ° F 52% 29.95 pul 6.2 mi NO 5.8 mph - N/A   Parcialmente nublado
7:00 PM 55.4 ° F - 46.4 ° F 72% 29.95 pul 6.2 mi Sin viento Sin viento - N/A   Parcialmente nublado
7:30 PM 55.4 ° F - 46.4 ° F 72% 29.95 pul 6.2 mi Variable 2.3 mph - N/A   Parcialmente nublado
8:00 PM 54 ° F - 48 ° F 72% 29.98 pul 19 mi Oeste 8.1 mph - -  
8:00 PM 53.6 ° F - 48.2 ° F 82% 29.98 pul 6.2 mi Oeste 5.8 mph - N/A   Parcialmente nublado
8:30 PM 51.8 ° F - 48.2 ° F 88% 29.98 pul 6.2 mi Variable 2.3 mph - N/A   Parcialmente nublado
9:00 PM 53 ° F - 47 ° F 75% 29.99 pul 19 mi Sin viento Sin viento - -  
9:00 PM 51.8 ° F - 46.4 ° F 82% 29.98 pul 6.2 mi Variable 1.2 mph - N/A   Parcialmente nublado
9:30 PM 51.8 ° F - 48.2 ° F 88% 29.98 pul 6.2 mi Sin viento Sin viento - N/A   Parcialmente nublado
10:00 PM 48.2 ° F - 44.6 ° F 87% 29.98 pul 6.2 mi Sin viento Sin viento - N/A   Parcialmente nublado
10:30 PM 50.0 ° F - 46.4 ° F 87% 29.98 pul - Sin viento Sin viento - N/A   Despejado
11:00 PM 50 ° F - 45 ° F 78% 30.00 pul 14 mi Norte 3.5 mph - -  
11:00 PM 48.2 ° F - 44.6 ° F 87% 29.98 pul 6.2 mi Sin viento Sin viento - N/A   Desconocido
11:30 PM 46.4 ° F 44.3 ° F 42.8 ° F 87% 29.98 pul 6.2 mi NNE 4.6 mph - N/A   Desconocido